Time,TemperatureF,DewpointF,PressureIn,WindDirection,WindDirectionDegrees,WindSpeedMPH,WindSpeedGustMPH,Humidity,HourlyPrecipIn,Conditions,Clouds,dailyrainin,SoftwareType,DateUTC
2013-07-13 02:00:00,73.0,-99.9,-100.00,ENE,62,3.0,8.0,-999,-99.99,,,-99.99,,2013-07-13 07:00:00,
2013-07-13 02:44:00,73.0,-99.9,-100.00,East,100,6.0,9.0,-999,-99.99,,,-99.99,,2013-07-13 07:44:00,
2013-07-13 02:53:00,73.0,-99.9,-100.00,ENE,62,3.0,8.0,-999,-99.99,,,-99.99,,2013-07-13 07:53:00,
2013-07-13 04:53:00,69.0,-99.9,-100.00,NE,54,2.0,4.0,-999,-99.99,,,-99.99,,2013-07-13 09:53:00,
2013-07-13 05:11:00,68.0,-99.9,-100.00,ENE,65,2.0,5.0,-999,-99.99,,,-99.99,,2013-07-13 10:11:00,
2013-07-13 06:10:00,66.0,-99.9,-100.00,ENE,62,2.0,5.0,-999,-99.99,,,-99.99,,2013-07-13 11:10:00,
2013-07-13 06:50:00,66.0,-99.9,-100.00,ENE,74,3.0,6.0,-999,-99.99,,,-99.99,,2013-07-13 11:50:00,
2013-07-13 06:52:00,66.0,-99.9,-100.00,ENE,62,2.0,5.0,-999,-99.99,,,-99.99,,2013-07-13 11:52:00,
2013-07-13 07:02:00,66.0,-99.9,-100.00,ENE,62,2.0,5.0,-999,-99.99,,,-99.99,,2013-07-13 12:02:00,
2013-07-13 07:43:00,66.0,-99.9,-100.00,ENE,74,3.0,6.0,-999,-99.99,,,-99.99,,2013-07-13 12:43:00,
2013-07-13 10:50:00,82.0,-99.9,-100.00,SE,127,7.0,12.0,-999,-99.99,,,-99.99,,2013-07-13 15:50:00,
2013-07-13 11:43:00,82.0,-99.9,-100.00,SE,127,7.0,12.0,-999,-99.99,,,-99.99,,2013-07-13 16:43:00,
2013-07-13 13:11:00,89.0,-99.9,-100.00,SW,230,8.0,8.0,-999,-99.99,,,-99.99,,2013-07-13 18:11:00,
2013-07-13 13:22:00,89.0,-99.9,-100.00,SW,230,8.0,8.0,-999,-99.99,,,-99.99,,2013-07-13 18:22:00,
2013-07-13 14:20:00,91.0,-99.9,-100.00,SE,134,12.0,14.0,-999,-99.99,,,-99.99,,2013-07-13 19:20:00,
2013-07-13 15:12:00,91.0,-99.9,-100.00,SE,134,12.0,14.0,-999,-99.99,,,-99.99,,2013-07-13 20:12:00,
2013-07-13 18:33:00,91.0,-99.9,-100.00,ESE,108,10.0,14.0,-999,-99.99,,,-99.99,,2013-07-13 23:33:00,
2013-07-13 20:02:00,90.0,-99.9,-100.00,ESE,114,1.0,14.0,-999,-99.99,,,-99.99,,2013-07-14 01:02:00,
2013-07-13 20:11:00,90.0,-99.9,-100.00,ESE,114,1.0,14.0,-999,-99.99,,,-99.99,,2013-07-14 01:11:00,
2013-07-13 20:30:00,86.0,-99.9,-100.00,SSE,148,9.0,10.0,-999,-99.99,,,-99.99,,2013-07-14 01:30:00,
2013-07-13 20:43:00,88.0,-99.9,-100.00,WSW,246,3.0,14.0,-999,-99.99,,,-99.99,,2013-07-14 01:43:00,
2013-07-13 20:52:00,88.0,-99.9,-100.00,WSW,246,3.0,14.0,-999,-99.99,,,-99.99,,2013-07-14 01:52:00,
2013-07-13 21:12:00,86.0,-99.9,-100.00,SSE,148,9.0,10.0,-999,-99.99,,,-99.99,,2013-07-14 02:12:00,
2013-07-13 21:22:00,86.0,-99.9,-100.00,SSE,148,9.0,10.0,-999,-99.99,,,-99.99,,2013-07-14 02:22:00,
2013-07-13 23:54:00,77.0,-99.9,-100.00,East,91,5.0,9.0,-999,-99.99,,,-99.99,,2013-07-14 04:54:00,